FW9423 Weather Reports


Display with metric or nautical units.
time (UTC)temp
F
wind
direction
speed
MPH
gust
MPH
rain 1hr
in
rain 24hr
in
rain mn
in
humidity
%
barometer
mb
20260510214551 48 360 2.0 3.0 0.00 0.00 0.00 85 1028.7
20260510214043 48 360 2.0 3.0 0.00 0.00 0.00 85 1028.7
20260510213543 48 360 1.0 4.0 0.00 0.00 0.00 85 1028.6
20260510213102 49 360 2.0 5.0 0.00 0.00 0.00 85 1028.6
20260510212542 49 360 2.0 5.0 0.00 0.00 0.00 84 1028.6
20260510212043 49 360 2.0 6.0 0.00 0.00 0.00 84 1028.5
20260510211548 49 360 3.0 6.0 0.00 0.00 0.00 84 1028.5
20260510211043 49 360 3.0 6.0 0.00 0.00 0.00 84 1028.6
20260510210541 50 360 3.0 6.0 0.00 0.00 0.00 84 1028.5
20260510210054 50 360 2.0 5.0 0.00 0.00 0.00 84 1028.5
20260510205542 49 360 2.0 4.0 0.00 0.00 0.00 84 1028.5
20260510205044 49 360 2.0 4.0 0.00 0.00 0.00 84 1028.5
20260510204556 49 360 1.0 3.0 0.00 0.00 0.00 83 1028.5
20260510204042 49 360 1.0 3.0 0.00 0.00 0.00 83 1028.4
20260510203543 50 360 1.0 3.0 0.00 0.00 0.00 83 1028.3
20260510203048 50 360 1.0 3.0 0.00 0.00 0.00 83 1028.3
20260510202544 50 360 1.0 3.0 0.00 0.00 0.00 83 1028.3
20260510202041 50 360 1.0 3.0 0.00 0.00 0.00 82 1028.3
20260510201549 50 360 1.0 3.0 0.00 0.00 0.00 82 1028.4
20260510201040 50 360 0.0 3.0 0.00 0.00 0.00 82 1028.3
20260510200542 50 360 1.0 3.0 0.00 0.00 0.00 82 1028.2
20260510200046 50 360 1.0 3.0 0.00 0.00 0.00 82 1028.3
20260510195546 50 360 1.0 3.0 0.00 0.00 0.00 81 1028.2
20260510195042 50 360 1.0 3.0 0.00 0.00 0.00 81 1028.2
20260510194556 50 360 1.0 3.0 0.00 0.00 0.00 81 1028.1
20260510194044 51 360 1.0 4.0 0.00 0.00 0.00 81 1028.0
20260510193544 51 360 2.0 4.0 0.00 0.00 0.00 80 1027.9
20260510193049 51 360 2.0 4.0 0.00 0.00 0.00 80 1027.9
20260510192542 51 360 2.0 4.0 0.00 0.00 0.00 80 1027.8
20260510192043 51 360 2.0 4.0 0.00 0.00 0.00 80 1027.8
20260510191551 51 360 2.0 4.0 0.00 0.00 0.00 79 1027.8
20260510191041 51 360 2.0 4.0 0.00 0.00 0.00 79 1027.9
20260510190541 51 360 2.0 3.0 0.00 0.00 0.00 79 1027.8
20260510190054 51 360 1.0 3.0 0.00 0.00 0.00 78 1027.7
20260510185540 52 360 1.0 3.0 0.00 0.00 0.00 78 1027.7
20260510185041 52 360 1.0 3.0 0.00 0.00 0.00 78 1027.7
20260510184554 52 360 1.0 4.0 0.00 0.00 0.00 78 1027.7
20260510184041 52 360 1.0 4.0 0.00 0.00 0.00 78 1027.7
20260510183543 52 360 1.0 3.0 0.00 0.00 0.00 77 1027.7
20260510183058 52 360 1.0 4.0 0.00 0.00 0.00 77 1027.7
20260510182543 52 360 1.0 4.0 0.00 0.00 0.00 77 1027.7
20260510182042 53 360 2.0 5.0 0.00 0.00 0.00 77 1027.7
20260510181618 53 360 2.0 6.0 0.00 0.00 0.00 77 1027.7
20260510181042 53 360 3.0 6.0 0.00 0.00 0.00 77 1027.6
20260510180542 53 360 2.0 4.0 0.00 0.00 0.00 77 1027.8
20260510180059 53 360 2.0 5.0 0.00 0.00 0.00 76 1027.7
20260510175539 53 360 1.0 5.0 0.00 0.00 0.00 76 1027.8
20260510175046 53 360 1.0 6.0 0.00 0.00 0.00 75 1027.8
20260510174557 53 360 3.0 6.0 0.00 0.00 0.00 75 1027.7
20260510174041 54 360 2.0 5.0 0.00 0.00 0.00 75 1027.7
20260510173546 54 360 2.0 8.0 0.00 0.00 0.00 75 1027.8
20260510173046 54 360 3.0 8.0 0.00 0.00 0.00 75 1027.8
20260510172543 54 360 3.0 8.0 0.00 0.00 0.00 74 1027.7
20260510172043 54 360 3.0 8.0 0.00 0.00 0.00 74 1027.8
20260510171547 54 360 3.0 8.0 0.00 0.00 0.00 74 1027.8
20260510171042 54 360 4.0 9.0 0.00 0.00 0.00 73 1027.8
20260510170542 55 360 4.0 9.0 0.00 0.00 0.00 73 1027.8
20260510170050 55 360 4.0 9.0 0.00 0.00 0.00 73 1027.9
20260510165545 55 360 3.0 9.0 0.00 0.00 0.00 73 1027.9
20260510165042 55 360 4.0 9.0 0.00 0.00 0.00 72 1027.9
20260510164550 55 360 4.0 9.0 0.00 0.00 0.00 72 1028.0
20260510164042 55 360 4.0 8.0 0.00 0.00 0.00 72 1028.0
20260510163542 55 360 3.0 8.0 0.00 0.00 0.00 72 1028.1
20260510163054 55 360 4.0 8.0 0.00 0.00 0.00 72 1028.1
20260510162544 55 360 4.0 8.0 0.00 0.00 0.00 72 1028.1
20260510162042 55 360 4.0 8.0 0.00 0.00 0.00 72 1028.1
20260510161550 56 360 4.0 6.0 0.00 0.00 0.00 72 1028.2
20260510161042 56 360 3.0 8.0 0.00 0.00 0.00 71 1028.2
20260510160545 56 360 3.0 8.0 0.00 0.00 0.00 71 1028.2
20260510160053 56 360 4.0 9.0 0.00 0.00 0.00 71 1028.0
20260510155544 56 360 4.0 11.0 0.00 0.00 0.00 71 1028.1
20260510155041 56 360 4.0 11.0 0.00 0.00 0.00 70 1028.2
20260510154629 56 360 5.0 11.0 0.00 0.00 0.00 70 1028.0
20260510154046 57 360 5.0 10.0 0.00 0.00 0.00 70 1028.1
20260510153542 57 360 5.0 10.0 0.00 0.00 0.00 70 1028.1
20260510153051 57 360 4.0 10.0 0.00 0.00 0.00 70 1028.2
20260510152543 57 360 5.0 10.0 0.00 0.00 0.00 69 1028.2
20260510152042 57 360 5.0 10.0 0.00 0.00 0.00 69 1028.2
20260510151552 57 360 5.0 11.0 0.00 0.00 0.00 69 1028.2
20260510151042 57 360 4.0 11.0 0.00 0.00 0.00 68 1028.4
20260510150541 57 360 5.0 10.0 0.00 0.00 0.00 68 1028.3
20260510150048 57 360 4.0 8.0 0.00 0.00 0.00 68 1028.4
20260510145541 57 360 3.0 8.0 0.00 0.00 0.00 67 1028.4
20260510145041 58 360 4.0 9.0 0.00 0.00 0.00 67 1028.4
20260510144548 58 360 3.0 9.0 0.00 0.00 0.00 67 1028.6
20260510144043 58 360 4.0 8.0 0.00 0.00 0.00 67 1028.6
20260510143543 58 360 4.0 9.0 0.00 0.00 0.00 67 1028.7
20260510143053 58 360 3.0 9.0 0.00 0.00 0.00 66 1028.6
20260510142548 58 360 3.0 9.0 0.00 0.00 0.00 66 1028.7
20260510142043 59 360 4.0 9.0 0.00 0.00 0.00 66 1028.7
20260510141555 59 360 4.0 8.0 0.00 0.00 0.00 66 1028.7
20260510141040 59 360 4.0 8.0 0.00 0.00 0.00 65 1028.7
20260510140543 59 360 4.0 9.0 0.00 0.00 0.00 65 1028.7
20260510140050 59 360 4.0 9.0 0.00 0.00 0.00 65 1028.6
20260510135543 59 360 4.0 9.0 0.00 0.00 0.00 65 1028.7
20260510135042 59 360 5.0 9.0 0.00 0.00 0.00 65 1028.7
20260510134600 59 360 4.0 9.0 0.00 0.00 0.00 65 1028.7
20260510134042 59 360 4.0 9.0 0.00 0.00 0.00 65 1028.7
20260510133544 59 360 5.0 9.0 0.00 0.00 0.00 65 1028.7
20260510133053 60 360 4.0 9.0 0.00 0.00 0.00 65 1028.7
20260510132541 60 360 3.0 6.0 0.00 0.00 0.00 64 1028.7
20260510132043 60 360 4.0 6.0 0.00 0.00 0.00 64 1028.7
20260510131554 60 360 3.0 6.0 0.00 0.00 0.00 64 1028.7
20260510131041 60 360 4.0 6.0 0.00 0.00 0.00 64 1028.6
20260510130542 60 360 4.0 8.0 0.00 0.00 0.00 64 1028.7
20260510130051 60 360 4.0 8.0 0.00 0.00 0.00 63 1028.7
20260510125605 60 360 3.0 8.0 0.00 0.00 0.00 63 1028.7
20260510125043 60 360 3.0 9.0 0.00 0.00 0.00 63 1028.7
20260510124556 61 360 3.0 9.0 0.00 0.00 0.00 63 1028.7
20260510124043 61 360 3.0 6.0 0.00 0.00 0.00 62 1028.7
20260510123543 61 360 3.0 8.0 0.00 0.00 0.00 62 1028.7
20260510123056 61 360 3.0 8.0 0.00 0.00 0.00 62 1028.7
20260510122542 61 360 3.0 8.0 0.00 0.00 0.00 61 1028.7
20260510122042 62 360 4.0 9.0 0.00 0.00 0.00 61 1028.7
20260510121548 62 360 4.0 9.0 0.00 0.00 0.00 61 1028.8
20260510121042 62 360 4.0 8.0 0.00 0.00 0.00 61 1028.7
20260510120541 62 360 4.0 8.0 0.00 0.00 0.00 60 1028.7
20260510120049 62 360 4.0 9.0 0.00 0.00 0.00 60 1028.6
20260510115541 62 360 3.0 9.0 0.00 0.00 0.00 60 1028.6
20260510115043 62 360 5.0 10.0 0.00 0.00 0.00 59 1028.5
20260510114557 63 360 4.0 10.0 0.00 0.00 0.00 59 1028.5
20260510114042 63 360 4.0 10.0 0.00 0.00 0.00 58 1028.5
20260510113543 63 360 4.0 10.0 0.00 0.00 0.00 58 1028.5
20260510113048 63 360 5.0 10.0 0.00 0.00 0.00 57 1028.5
20260510112541 64 360 5.0 10.0 0.00 0.00 0.00 57 1028.5
20260510112045 64 360 6.0 10.0 0.00 0.00 0.00 57 1028.4
20260510111555 64 360 5.0 9.0 0.00 0.00 0.00 56 1028.4
20260510111042 64 360 4.0 8.0 0.00 0.00 0.00 56 1028.4
20260510110542 64 360 3.0 8.0 0.00 0.00 0.00 56 1028.3
20260510110050 64 360 4.0 9.0 0.00 0.00 0.00 56 1028.3
20260510105543 64 360 4.0 9.0 0.00 0.00 0.00 56 1028.1
20260510105042 64 360 4.0 9.0 0.00 0.00 0.00 55 1028.1
20260510104550 64 360 5.0 9.0 0.00 0.00 0.00 56 1028.0
20260510104044 64 360 4.0 9.0 0.00 0.00 0.00 55 1027.9
20260510103543 64 360 4.0 8.0 0.00 0.00 0.00 55 1027.9
20260510103051 65 360 3.0 8.0 0.00 0.00 0.00 55 1027.9
20260510102543 65 360 4.0 8.0 0.00 0.00 0.00 55 1027.9
20260510102041 65 360 3.0 8.0 0.00 0.00 0.00 54 1027.8
20260510101551 65 360 3.0 6.0 0.00 0.00 0.00 54 1027.7
20260510101043 65 360 2.0 5.0 0.00 0.00 0.00 54 1027.7
20260510100547 65 360 2.0 4.0 0.00 0.00 0.00 54 1027.6
20260510100110 65 360 2.0 4.0 0.00 0.00 0.00 53 1027.5
20260510095543 66 360 3.0 5.0 0.00 0.00 0.00 53 1027.4
20260510095040 66 360 2.0 5.0 0.00 0.00 0.00 52 1027.4
20260510094555 66 360 2.0 6.0 0.00 0.00 0.00 52 1027.3
20260510094112 66 360 3.0 8.0 0.00 0.00 0.00 52 1027.3
20260510093543 67 360 3.0 8.0 0.00 0.00 0.00 51 1027.3
20260510093050 67 360 3.0 6.0 0.00 0.00 0.00 51 1027.2
20260510092541 67 360 2.0 5.0 0.00 0.00 0.00 50 1027.2
20260510092043 67 360 3.0 10.0 0.00 0.00 0.00 50 1027.0
20260510091554 67 360 3.0 10.0 0.00 0.00 0.00 49 1026.8
20260510091043 68 360 4.0 10.0 0.00 0.00 0.00 49 1026.9
20260510090543 68 360 5.0 10.0 0.00 0.00 0.00 48 1026.8
20260510090051 68 360 3.0 10.0 0.00 0.00 0.00 48 1026.7
20260510085542 68 360 4.0 10.0 0.00 0.00 0.00 48 1026.7
20260510085043 68 360 4.0 10.0 0.00 0.00 0.00 48 1026.7
20260510084549 69 360 2.0 10.0 0.00 0.00 0.00 47 1026.8
20260510084043 69 360 4.0 10.0 0.00 0.00 0.00 47 1026.8
20260510083543 69 360 4.0 10.0 0.00 0.00 0.00 47 1026.7
20260510083054 69 360 5.0 10.0 0.00 0.00 0.00 47 1026.5
20260510082542 70 360 3.0 10.0 0.00 0.00 0.00 46 1026.5
20260510082042 70 360 3.0 11.0 0.00 0.00 0.00 45 1026.4
20260510081555 70 360 5.0 11.0 0.00 0.00 0.00 46 1026.3
20260510081043 70 360 4.0 12.0 0.00 0.00 0.00 45 1026.2
20260510080543 70 360 6.0 12.0 0.00 0.00 0.00 45 1026.3
20260510080054 70 360 6.0 11.0 0.00 0.00 0.00 45 1026.2
20260510075543 70 360 6.0 11.0 0.00 0.00 0.00 45 1026.2
20260510075043 70 360 5.0 11.0 0.00 0.00 0.00 45 1026.2
20260510074552 71 360 7.0 11.0 0.00 0.00 0.00 45 1026.2
20260510074044 71 360 5.0 11.0 0.00 0.00 0.00 45 1026.3
20260510073541 71 360 6.0 10.0 0.00 0.00 0.00 45 1026.3
20260510073053 71 360 6.0 11.0 0.00 0.00 0.00 45 1026.3
20260510072543 71 360 6.0 11.0 0.00 0.00 0.00 45 1026.4
20260510072042 71 360 3.0 11.0 0.00 0.00 0.00 45 1026.3
20260510071554 71 360 6.0 13.0 0.00 0.00 0.00 45 1026.4
20260510071042 71 90 4.0 13.0 0.00 0.00 0.00 46 1026.3
20260510070542 71 360 6.0 13.0 0.00 0.00 0.00 46 1026.4
20260510070052 71 360 3.0 10.0 0.00 0.00 0.00 46 1026.3
20260510065543 71 161 5.0 11.0 0.00 0.00 0.00 45 1026.4
20260510065042 71 360 6.0 12.0 0.00 0.00 0.00 45 1026.3
20260510064550 71 360 6.0 12.0 0.00 0.00 0.00 44 1026.4
20260510064043 71 111 6.0 10.0 0.00 0.00 0.00 46 1026.4
20260510063541 71 360 3.0 9.0 0.00 0.00 0.00 45 1026.4
20260510063051 71 360 5.0 10.0 0.00 0.00 0.00 44 1026.4
20260510062543 71 122 5.0 12.0 0.00 0.00 0.00 45 1026.4
20260510062043 71 360 5.0 12.0 0.00 0.00 0.00 45 1026.4
20260510061555 71 106 4.0 12.0 0.00 0.00 0.00 46 1026.5
20260510061043 71 106 3.0 12.0 0.00 0.00 0.00 47 1026.6
20260510060541 71 360 6.0 12.0 0.00 0.00 0.00 46 1026.6
20260510060051 71 112 5.0 10.0 0.00 0.00 0.00 46 1026.6
20260510055543 70 360 7.0 10.0 0.00 0.00 0.00 47 1026.6
20260510055041 70 99 3.0 10.0 0.00 0.00 0.00 48 1026.6
20260510054552 70 360 5.0 13.0 0.00 0.00 0.00 47 1026.7
20260510054042 71 360 5.0 13.0 0.00 0.00 0.00 47 1026.7
20260510053543 70 51 5.0 10.0 0.00 0.00 0.00 48 1026.7
20260510053109 71 360 4.0 10.0 0.00 0.00 0.00 47 1026.7
20260510052543 70 132 3.0 11.0 0.00 0.00 0.00 48 1026.7
20260510052043 70 129 5.0 12.0 0.00 0.00 0.00 48 1026.7
20260510051558 70 360 5.0 12.0 0.00 0.00 0.00 50 1026.7
20260510051043 70 360 5.0 12.0 0.00 0.00 0.00 49 1026.8
20260510050542 70 360 4.0 10.0 0.00 0.00 0.00 50 1026.8
20260510050050 70 360 5.0 10.0 0.00 0.00 0.00 49 1026.9
20260510045544 70 360 4.0 11.0 0.00 0.00 0.00 50 1026.9
20260510045043 69 360 6.0 11.0 0.00 0.00 0.00 51 1027.0
20260510044555 70 360 4.0 11.0 0.00 0.00 0.00 51 1027.0
20260510044044 70 360 6.0 10.0 0.00 0.00 0.00 51 1027.1
20260510043543 69 360 3.0 12.0 0.00 0.00 0.00 52 1027.1
20260510043058 69 360 7.0 12.0 0.00 0.00 0.00 51 1027.3
20260510042545 69 360 6.0 11.0 0.00 0.00 0.00 51 1027.4
20260510042042 69 360 6.0 11.0 0.00 0.00 0.00 51 1027.4
20260510041553 69 360 5.0 15.0 0.00 0.00 0.00 53 1027.5
20260510041041 69 360 4.0 15.0 0.00 0.00 0.00 53 1027.5
20260510040541 68 360 8.0 15.0 0.00 0.00 0.00 53 1027.7
20260510040100 68 360 5.0 10.0 0.00 0.00 0.00 54 1027.8
20260510035542 68 360 6.0 11.0 0.00 0.00 0.00 55 1027.8
20260510035042 68 360 5.0 11.0 0.00 0.00 0.00 56 1027.9
20260510034556 68 360 5.0 13.0 0.00 0.00 0.00 55 1028.0
20260510034043 68 360 5.0 13.0 0.00 0.00 0.00 57 1028.0
20260510033543 67 360 4.0 10.0 0.00 0.00 0.00 57 1028.1
20260510033110 67 360 5.0 12.0 0.00 0.00 0.00 58 1028.3
20260510032543 67 360 4.0 12.0 0.00 0.00 0.00 59 1028.4
20260510032045 67 360 6.0 12.0 0.00 0.00 0.00 58 1028.6
20260510031554 67 360 4.0 12.0 0.00 0.00 0.00 59 1028.7
20260510031041 66 360 6.0 12.0 0.00 0.00 0.00 59 1028.8
20260510030543 66 360 5.0 12.0 0.00 0.00 0.00 60 1028.8
20260510030050 66 360 5.0 11.0 0.00 0.00 0.00 60 1028.9
20260510025543 65 360 7.0 11.0 0.00 0.00 0.00 60 1029.1
20260510025044 66 360 5.0 10.0 0.00 0.00 0.00 60 1029.2
20260510024556 65 360 5.0 10.0 0.00 0.00 0.00 61 1029.2
20260510024044 65 360 5.0 12.0 0.00 0.00 0.00 61 1029.3
20260510023543 65 360 6.0 12.0 0.00 0.00 0.00 61 1029.5
20260510023052 65 360 6.0 13.0 0.00 0.00 0.00 61 1029.5
20260510022543 65 360 5.0 13.0 0.00 0.00 0.00 61 1029.6
20260510022043 65 360 5.0 13.0 0.00 0.00 0.00 62 1029.6
20260510021551 64 360 5.0 10.0 0.00 0.00 0.00 63 1029.6
20260510021043 64 360 4.0 10.0 0.00 0.00 0.00 64 1029.8
20260510020543 64 360 5.0 10.0 0.00 0.00 0.00 64 1029.8
20260510020050 63 360 5.0 13.0 0.00 0.00 0.00 65 1029.8
20260510015541 63 360 5.0 13.0 0.00 0.00 0.00 65 1029.9
20260510015041 63 360 5.0 13.0 0.00 0.00 0.00 66 1029.9
20260510014552 63 360 5.0 10.0 0.00 0.00 0.00 67 1029.9
20260510014041 62 360 5.0 10.0 0.00 0.00 0.00 68 1030.0
20260510013541 62 360 4.0 10.0 0.00 0.00 0.00 67 1030.0
20260510013053 62 360 5.0 10.0 0.00 0.00 0.00 68 1030.2
20260510012548 62 360 5.0 12.0 0.00 0.00 0.00 68 1030.2
20260510012042 62 360 5.0 12.0 0.00 0.00 0.00 69 1030.2
20260510011555 62 360 7.0 12.0 0.00 0.00 0.00 69 1030.2
20260510011042 61 360 5.0 12.0 0.00 0.00 0.00 70 1030.3
20260510010543 61 360 7.0 12.0 0.00 0.00 0.00 70 1030.3
20260510010050 61 360 6.0 12.0 0.00 0.00 0.00 71 1030.3
20260510005544 61 360 5.0 11.0 0.00 0.00 0.00 71 1030.2
20260510005043 60 360 6.0 11.0 0.00 0.00 0.00 72 1030.2
20260510004558 60 360 6.0 10.0 0.00 0.00 0.00 73 1030.3
20260510004043 60 360 5.0 10.0 0.00 0.00 0.00 74 1030.2
20260510003543 59 360 6.0 11.0 0.00 0.00 0.00 75 1030.2
20260510003109 59 360 6.0 11.0 0.00 0.00 0.00 76 1030.3
20260510002542 59 360 5.0 12.0 0.00 0.00 0.00 77 1030.2
20260510002040 58 360 7.0 12.0 0.00 0.00 0.00 77 1030.1
20260510001546 58 360 5.0 12.0 0.00 0.00 0.00 78 1030.2
20260510001043 57 360 6.0 12.0 0.00 0.00 0.00 78 1030.2
20260510000542 57 360 6.0 12.0 0.00 0.00 0.00 79 1030.3
20260510000100 57 360 6.0 12.0 0.00 0.00 0.00 79 1030.2
20260509235542 57 360 6.0 13.0 0.00 0.00 0.00 80 1030.2
20260509235043 56 360 5.0 13.0 0.00 0.00 0.00 81 1030.2
20260509234601 56 360 8.0 12.0 0.00 0.00 0.00 81 1030.2
20260509234043 56 360 6.0 12.0 0.00 0.00 0.00 82 1030.1
20260509233544 55 360 5.0 11.0 0.00 0.00 0.00 83 1030.1
20260509233101 55 360 5.0 10.0 0.00 0.00 0.00 84 1030.0
20260509232543 54 360 4.0 9.0 0.00 0.00 0.00 85 1030.0
20260509232043 54 360 5.0 9.0 0.00 0.00 0.00 85 1030.0
20260509231557 53 360 4.0 9.0 0.00 0.00 0.00 86 1030.0
20260509231043 53 360 5.0 9.0 0.00 0.00 0.00 86 1029.9
20260509230542 52 360 4.0 9.0 0.00 0.00 0.00 87 1029.9
20260509230059 52 360 4.0 9.0 0.00 0.00 0.00 87 1029.9
20260509225542 52 360 4.0 9.0 0.00 0.00 0.00 87 1029.9
20260509225040 51 360 4.0 8.0 0.00 0.00 0.00 87 1029.9
20260509224546 51 360 4.0 8.0 0.00 0.00 0.00 87 1029.8
20260509224039 51 360 4.0 8.0 0.00 0.00 0.00 87 1029.7
20260509223540 51 360 3.0 6.0 0.00 0.00 0.00 87 1029.6
20260509223049 50 360 3.0 5.0 0.00 0.00 0.00 87 1029.6
20260509222539 50 360 3.0 6.0 0.00 0.00 0.00 87 1029.5
20260509222043 50 360 3.0 6.0 0.00 0.00 0.00 87 1029.4
20260509221555 50 360 3.0 5.0 0.00 0.00 0.00 87 1029.3
20260509221043 50 360 3.0 6.0 0.00 0.00 0.00 87 1029.4
20260509220542 50 360 3.0 6.0 0.00 0.00 0.00 87 1029.3
20260509220051 50 360 3.0 6.0 0.00 0.00 0.00 86 1029.3
20260509215546 50 360 3.0 5.0 0.00 0.00 0.00 86 1029.2
20260509215043 50 360 3.0 6.0 0.00 0.00 0.00 86 1029.2